EUTELSAT HOTBIRD 13E

导读

EUTELSAT HOTBIRD 13E是欧洲通信卫星组织(Eutelsat)运营的热鸟系列通信卫星,于2006年3月11日发射定点于赤道东经13°地球同步轨道。该卫星主要服务欧洲、北非、中东等区域,专注提供数字广播电视传输服务,覆盖免费与加密频道,同时承载数据交互与IP通信业务,是欧洲区域卫星直播电视服务的核心空间基础设施之一。

基本信息
目录编号:
28946
目录名称:
EUTELSAT HOTBIRD 13E
国际标识:
2006-007B
轨道中心:
EARTH
卫星名称:
EUTELSAT HOTBIRD 13E
卫星全名:
--
卫星状态:
在轨 (已飞行7443 天)
发射日期:
2006-03-11 UTC
国别 :
(EUTE)
星等 :
--
轨道信息
数据来源 国际轨道数据 AOE轨道数据
星历时间 2026-07-27T09:16:39+0800
21小时前
查看轨道信息
2026-07-21T12:00:00+0800
6天前
查看轨道信息
半长轴 42779.157km 42779.68km
偏心率 0.0006796 0.0006703
轨道倾角 2.194° 2.180°
近地点辐角 187.648° 190.328°
升交点赤经 83.478° 83.563°
平近点角 36.966° 114.866°
近地点 36371.947km 36372.867km
远地点 36430.093km 36430.219km
周期 1467.601分钟 1467.628分钟
每日圈数 0.981193 0.981175
详细信息
使用方式:
暂无
2D轨道图
3D轨道图
轨道高度分析图
轨道倾角分析图
轨道综合分析图
查看轨道综合分析图